Location: Lilla Ulmberget
(66.6500°N, 22.0667°E)
Time: 13:55:11
(UTC+00:00)

Daily predictions for brighter satellites

Satellite Brightness Start Highest point End
(mag) Time Altitude Azimuth Time Altitude Azimuth Time Altitude Azimuth
Meteor 1-26 Rocket 4.4 22:03:50 10° S 22:09:18 67° ESE 22:14:59 10° NNE
ALOS 2 3.4 22:07:08 10° S 22:11:21 43° W 22:15:35 10° NNW
ARIANE 5 R/B 3.6 22:07:55 10° SSW 22:12:05 39° W 22:16:17 10° NNW
NOSS 3-3 (C) 4.4 22:06:57 10° SSW 22:12:23 44° SE 22:18:58 10° ENE
CZ-2C R/B 3.7 22:10:26 10° NNE 22:14:52 76° ESE 22:19:20 10° SSW
Cosmos 2219 Rocket 3.3 22:11:25 10° NW 22:16:15 30° WSW 22:21:04 10° S
Cosmos 2058 Rocket 3.2 22:12:18 10° S 22:16:38 67° ESE 22:20:58 10° NNE
Cosmos 44 Rocket 3.5 22:12:16 10° WSW 22:17:23 64° SSE 22:22:33 10° E
PSLV R/B 3.8 22:16:52 10° NNE 22:21:01 59° ESE 22:25:14 10° S
Meteor 1-14 Rocket 4.4 22:15:46 10° NNW 22:21:22 66° WSW 22:26:51 10° S
Cosmos 1898 Rocket 3.9 22:17:29 10° NW 22:22:29 51° WSW 22:27:29 10° SSE
Cosmos 2322 Rocket 3.9 22:21:37 10° WNW 22:25:36 20° WSW 22:29:35 10° SSW
Cosmos 1125 Rocket 4.2 22:21:59 10° NW 22:27:16 59° NNE 22:32:31 10° ESE
Cosmos 1437 Rocket 3.9 22:24:21 10° SW 22:27:41 37° NW 22:31:05 10° NNE
SL-16 R/B 2.5 22:22:09 10° WNW 22:27:53 77° NNE 22:33:37 10° ESE
Cosmos 540 Rocket 4.0 22:24:02 10° S 22:28:57 46° ESE 22:33:52 10° NE
Cosmos 1461 3.7 22:27:22 10° SSW 22:30:28 25° SE 22:33:31 10° E
Cosmos 1536 3.9 22:30:55 10° NNW 22:34:09 30° W 22:37:23 10° SSW
USA 234 4.2 22:28:40 10° E 22:34:09 28° SSE 22:39:37 10° SSW
MetOp-A 4.4 22:29:34 10° S 22:34:25 49° WSW 22:39:03 10° NNW
ATLAS 2AS CENTAUR R/B 2.7 22:28:44 10° W 22:35:31 70° S 22:42:16 10° ESE
Cosmos 2034 Rocket 4.3 22:29:10 10° SSW 22:35:32 73° WNW 22:41:55 10° NNE
Meteor 2-9 Rocket 4.4 22:30:24 10° NNW 22:35:38 57° WSW 22:40:54 10° S
Cosmos 2082 Rocket 2.4 22:30:17 10° WSW 22:36:02 83° NNW 22:41:48 10° ENE
ACS3 Solar Sail 2.9 22:31:38 10° NNE 22:37:01 34° E 22:42:26 10° SSE
Cosmos 220 Rocket 3.9 22:34:03 10° SW 22:38:08 78° SE 22:42:16 10° NE
COSMOS 2428 3.3 22:34:53 10° NW 22:40:14 42° WSW 22:45:34 10° S
Cosmos 1707 2.1 22:38:50 10° SSW 22:41:41 73° WNW 22:44:33 10° NNE
Helios 1A 3.9 22:39:04 10° NNE 22:42:50 43° NW 22:46:34 10° SW
Cosmos 2237 Rocket 2.3 22:38:31 10° NW 22:44:09 62° SW 22:49:45 10° SSE
CZ-2C R/B 3.5 22:40:04 10° NNE 22:45:35 63° ESE 22:51:18 10° S
Cosmos 1980 3.9 22:42:07 10° NW 22:47:40 57° SW 22:53:13 10° SSE
